{"data":{"norad_id":68686,"epoch":"2026-09-19T02:38:18.129984Z","epoch_age_seconds":163850,"freshness":"FRESH","line1":"1 68686U 26077AA  26262.10993206  .00018894  00000+0  58584-3 0  9996","line2":"2 68686  97.2844 132.0801 0002609  79.0916 281.0620 15.33456766 24803","mean_motion":15.33456766,"eccentricity":0.0002609,"inclination_deg":97.2844,"raan_deg":132.0801,"arg_perigee_deg":79.0916,"mean_anomaly_deg":281.062,"bstar":0.00058584,"rev_number":2480,"period_min":93.905484127617,"perigee_km":463.72266033989,"apogee_km":467.29367438822,"semimajor_km":6843.6451673641,"source":"CELESTRAK","updated_at":"2026-09-20T09:00:43.955658Z"}}